(2015 YJ) |
Classification: Apollo [NEO] SPK-ID: 3738548 |
[ hide orbit diagram ]
For accurate long-term ephemerides, please instead use our Horizons system.This orbit viewer was implemented using two-body methods, and hence should not be used for determining accurate long-term trajectories (over several years or decades) or planetary encounter circumstances.
Orbital Elements at Epoch 2459000.5 (2020-May-31.0) TDB
Reference: JPL 7 (heliocentric ecliptic J2000)
Element | Value | Uncertainty (1-sigma) | Units |
e | .5228629407763344 | 0.00052004 | |
a | 1.263475671423307 | 0.0008352 | au |
q | .6028510662635632 | 0.00026021 | au |
i | .1205682938654941 | 0.00032863 | deg |
node | 264.8213741183164 | 0.092526 | deg |
peri | 79.02208303739424 | 0.093657 | deg |
M | 89.1842896953931 | 1.1865 | deg |
tp | 2458871.990684701625 (2020-Jan-23.49068470) | 1.5822 | TDB |
period | 518.7388234567592 1.42 | 0.51436 0.001408 | d yr |
n | .6939908557470996 | 0.00068813 | deg/d |
Q | 1.924100276583051 | 0.0012719 | au |
|
| | Orbit Determination Parameters
Additional Information
|
[ show covariance matrix ]
[ show close-approach data ]
|